sat.trackr.live / text

‹ back to catalog

ONEWEB-0605

NORAD 54669 · 2022-166AD

PAYLOAD ACTIVE UNKNOWN

§ Identity

Operator
Country
UK
Launch date
2022-12-08
Launch site
AFETR
Launch vehicle
Mass (kg)
RCS (m²)

Purposes: comms

External: N2YO · Heavens-Above · Gunter

§ Orbital elements

Epoch: 2026-05-25T01:12:46.583424Z

Period
108.94 min
Inclination
87.9253°
Eccentricity
0.0002599
Mean motion
13.21823793 rev/d
Perigee alt
1,175.8 km
Apogee alt
1,179.7 km
Semi-major
7,555.9 km
B*
3.3445e-5
RAAN
248.5904°
Arg perigee
105.1684°
Mean anomaly
254.9738°
Rev number
16,845

§ Raw data

ONEWEB-06051 54669U 22166AD  26145.05053916  .00000027  00000+0  33445-4 0  99952 54669  87.9253 248.5904 0002599 105.1684 254.9738 13.21823793168459

JSON: /api/v1/satellites/54669 · /tle

For live sub-satellite position, see the globe view (requires WebGL).

§ Visibility from observer

Set your observer location to see the next 7 days of passes ≥ 10°. The values pass through the URL so the page stays shareable.

No JS? Fill the form by hand. The geolocation button needs JavaScript.